Weather

DAILY 7 DAY TOTAL
onrain

Note: Some stations are located near irrigated fields and may also report irrigation

Alliston Mount Forest Blyth Guelph Grand Bend Strathroy Woodstock Belmont Simcoe Leamington Chatham West Lorne






Woodstock Outdoor FS - Historical Weather Data
Date Max Temp (°C) Min Temp (°C) Avg Temp (°C) Rain (mm) 7Day Rain(mm) Total Rain(mm) Avg RH (%)
5/24/2018 27.1 8.0 18.6 0.0 11.8 62.8 58.4
5/23/2018 24.5 10.2 17.0 0.0 11.8 62.8 67.9
5/22/2018 17.8 11.2 14.1 6.4 11.8 62.8 92.2
5/21/2018 21.2 3.2 13.7 0.0 27.0 56.4 63.6
5/20/2018 19.0 9.1 13.8 0.2 27.0 56.4 85.5
5/19/2018 21.2 8.7 14.8 5.2 26.8 56.2 83.7
5/18/2018 16.0 9.3 12.7 0.0 21.6 51.0 40.3
5/17/2018 26.0 9.8 18.5 0.0 22.4 51.0 63.5
5/16/2018 24.0 7.3 16.0 0.0 28.8 51.0 65.8
5/15/2018 21.0 10.5 16.0 21.6 30.0 51.0 85.7
5/14/2018 22.4 7.2 14.1 0.0 8.4 29.4 87.6
5/13/2018 21.5 5.1 13.0 0.0 8.4 29.4 61.0
5/12/2018 15.8 5.4 9.1 0.0 10.4 29.4 65.1
5/11/2018 10.1 1.3 6.0 0.8 10.4 29.4 69.1
5/10/2018 18.1 5.2 14.6 6.4 23.6 28.6 77.3
5/9/2018 25.3 5.9 16.6 1.2 22.2 22.2 60.9
5/8/2018 22.8 3.2 13.9 0.0 21.0 21.0 53.8
5/7/2018 17.9 7.2 12.3 0.0 21.0 21.0 55.6
5/6/2018 21.9 8.8 13.5 2.0 21.0 21.0 73.0
5/5/2018 21.9 6.0 13.9 0.0 19.0 19.0 69.9
5/4/2018 22.4 5.9 14.8 14.0 19.0 19.0 84.3
5/3/2018 19.7 12.5 16.4 5.0 6.8 5.0 93.7
5/2/2018 25.5 10.4 19.1 0.0 1.8 0.0 52.3
5/1/2018 23.4 5.1 15.3 0.0 9.4 0.0 42.3